Regional Weather Roundup
Issued by NWS

Home | Current Version | Previous Version | Text Only | Print | Product List | Glossary Off
Versions: 1 2 3 4 5 6 7 8 9 10 11 12 13 14 15 16 17 18 19 20 21 22 23 24 25 26 27 28 29 30 31 32 33 34 35 36 37 38 39 40 41 42 43 44 45 46 47 48 49 50

000
ASUS45 KPSR 210710
RWRAZ

ARIZONA REGIONAL HOURLY WEATHER ROUNDUP
NATIONAL WEATHER SERVICE PHOENIX AZ
1200 AM MST FRI NOV 21 2014

NOTE: FAIR INDICATES FEW OR NO CLOUDS BELOW 12,000 FEET WITH NO
SIGNIFICANT WEATHER AND/OR OBSTRUCTIONS TO VISIBILITY.

AZZ001>003-036-210800-
NORTHWEST ARIZONA

CITY           SKY/WX    TMP DP  RH WIND       PRES   REMARKS
BULLHEAD CITY  CLOUDY    57  25  28 CALM      29.93R
KINGMAN        CLOUDY    46  23  40 VRB3      29.97F
$$

AZZ004>008-015-016-018-210800-
NORTH CENTRAL ARIZONA

CITY           SKY/WX    TMP DP  RH WIND       PRES   REMARKS
GRAND CANYON   MOCLDY    25  13  60 CALM      30.07F
PRESCOTT       CLOUDY    38  20  48 CALM      30.02F
FLAGSTAFF      MOCLDY    28  15  58 CALM      30.08F
PAYSON         PTCLDY    41  12  30 CALM      30.07F
$$

AZZ009>014-017-210800-
NORTHEAST ARIZONA

CITY           SKY/WX    TMP DP  RH WIND       PRES   REMARKS
WINSLOW        CLOUDY    37  15  40 E3        30.03F
SAINT JOHNS    MOCLDY    36  18  48 S5        30.07S WCI  32
SHOW LOW       MOCLDY    32   9  37 S7        30.10F WCI  26
$$

AZZ023-210800-
GREATER PHOENIX AREA

CITY           SKY/WX    TMP DP  RH WIND       PRES   REMARKS
PHOENIX        MOCLDY    56  28  34 E9        29.93F
BUCKEYE          N/A     48  16  27 N3        29.94S
LUKE AFB       CLOUDY    51  31  46 NW2       29.94F
DEER VALLEY    CLOUDY    54  19  25 NE8       29.94F
SCOTTSDALE     MOCLDY    54  25  32 CALM      29.95F
MESA-GATEWAY   MOCLDY    46  23  39 SE7       29.98F
$$

AZZ027-028-210800-
SOUTHWEST MARICOPA COUNTY AND PINAL COUNTY

CITY           SKY/WX    TMP DP  RH WIND       PRES   REMARKS
CASA GRANDE    PTCLDY    45  14  29 MISG      29.96F
$$

AZZ503-504-507>509-210800-
SOUTHEAST ARIZONA

CITY           SKY/WX    TMP DP  RH WIND       PRES   REMARKS
TUCSON         CLEAR     51  17  26 SE13      30.01F
DAVIS-MONTHAN  PTCLDY    50  18  27 SE9       29.99F
NOGALES        CLEAR     42  17  36 NE3       30.04F
SIERRA VISTA   PTCLDY    46  18  31 S5        30.07F
DOUGLAS        MOCLDY    41  19  41 N8        30.06F
SAFFORD        PTCLDY    42  14  32 E6        30.01F
$$

AZZ020-021-025-026-031-210800-
SOUTHWEST ARIZONA

CITY           SKY/WX    TMP DP  RH WIND       PRES   REMARKS
YUMA           MOCLDY    60  29  30 CALM      29.91F
$$

CAZ031-033-041-043-047-048-061-210800-
SOUTHERN CALIFORNIA

CITY           SKY/WX    TMP DP  RH WIND       PRES   REMARKS
DOWNTOWN L.A.  PTCLDY    62  54  74 CALM      29.96F
L.A. AIRPORT   PTCLDY    62  55  77 CALM      29.97F
SAN DIEGO      CLOUDY    63  54  72 W5        30.02S
BURBANK        MOCLDY    59  54  83 CALM      29.97S
ONTARIO        CLOUDY    59  55  87 SW3       29.99S
RIVERSIDE      CLOUDY    60  54  80 W5        30.00R
PALM SPRINGS   MOCLDY    60  38  43 W3        29.92S
EL CENTRO NAS  CLOUDY    61  44  53 W6        29.90S
IMPERIAL       CLOUDY    61  48  62 W6        29.89F
BLYTHE         CLOUDY    53  18  25 N3        29.90F
NEEDLES        CLOUDY    59  15  18 W5        29.91S
$$

NVZ020-UTZ003-210800-
SOUTHERN NEVADA-UTAH

CITY           SKY/WX    TMP DP  RH WIND       PRES   REMARKS
LAS VEGAS      CLOUDY    56  20  24 W5        29.89S
SALT LAKE CITY PTCLDY    31  27  85 SE3       30.02S
$$

NMZ009-TXZ055-210800-
NEW MEXICO-WEST TEXAS

CITY           SKY/WX    TMP DP  RH WIND       PRES   REMARKS
ALBUQUERQUE    CLEAR     39  11  31 CALM      30.06S
EL PASO        PTCLDY    43  20  39 SE6       30.03S
$$


........................KEY........................
SKY/WX - SKY CONDITION/WEATHER
TMP    - TEMPERATURE IN FAHRENHEIT
DP     - DEW POINT IN FAHRENHEIT
RH     - RELATIVE HUMIDITY IN PERCENT
WIND   - DIRECTION AND SPEED IN MILES PER HOUR (MPH)
VRB    - VARIABLE WIND DIRECTION
PRES   - MEAN SEA LEVEL PRESSURE IN INCHES OF MERCURY
         F - FALLING PRESSURE   R - RISING PRESSURE
         S - STEADY PRESSURE
VSB    - VISIBILITY IN MILES
HX     - HEAT INDEX IN FAHRENHEIT
WCI    - WIND CHILL INDEX IN FAHRENHEIT
TC     - TEMPERATURE IN CELSIUS WHICH IS ALSO KNOWN AS
         TEMPERATURE IN CENTIGRADE
AFB    - AIR FORCE BASE
         LUKE AFB IS LUKE AIR FORCE BASE
         DAVIS-MONTHAN IS DAVIS-MONTHAN AIR FORCE BASE
NAS    - NAVAL AIR STATION
         EL CENTRO NAS IS EL CENTRO NAVAL AIR STATION
N/A    - NOT AVAILABLE


USA.gov is the U.S. government's official web portal to all federal, state and local government web resources and services.